LIC0195 LEBL-LEBA

Flight info

Callsign LIC0195
Flight time 1h 10m
Altitude 35000
Route SENIA Z596 NEXAS N975 ADUXO N869 BLN N747 ALCOL
Aircraft A21N/M-SDE2E3FGHIRWXY/LB1

Departure

Time 2026-05-07 17:17
Airport Josep Tarradellas Barcelona-El Prat Airport (LEBL)

Arrival

Time 2026-05-07 18:27
Airport Córdoba Airport (LEBA)
Time Latitude Longitude Altitude Speed Heading
2026-05-07 16:52 41.29105 2.07247 23 ft 0 kts 155°
2026-05-07 17:02 41.29115 2.07241 23 ft 4 kts 158°
2026-05-07 17:02 41.29141 2.07231 26 ft 4 kts 173°
2026-05-07 17:02 41.29167 2.07233 26 ft 4 kts 204°
2026-05-07 17:03 41.29182 2.07250 27 ft 1 kts 245°
2026-05-07 17:03 41.29184 2.07256 27 ft 0 kts 245°
2026-05-07 17:06 41.29183 2.07253 27 ft 3 kts 245°
2026-05-07 17:06 41.29166 2.07206 25 ft 7 kts 244°
2026-05-07 17:06 41.29151 2.07135 23 ft 9 kts 270°
2026-05-07 17:07 41.29197 2.07118 23 ft 11 kts 61°
2026-05-07 17:07 41.29232 2.07221 23 ft 14 kts 67°
2026-05-07 17:07 41.29273 2.07346 23 ft 16 kts 65°
2026-05-07 17:07 41.29322 2.07485 23 ft 18 kts 65°
2026-05-07 17:08 41.29350 2.07568 23 ft 6 kts 68°
2026-05-07 17:08 41.29365 2.07618 25 ft 6 kts 70°
2026-05-07 17:08 41.29397 2.07719 24 ft 14 kts 64°
2026-05-07 17:08 41.29441 2.07841 25 ft 18 kts 64°
2026-05-07 17:09 41.29505 2.08038 23 ft 24 kts 71°
2026-05-07 17:09 41.29550 2.08203 24 ft 16 kts 89°
2026-05-07 17:09 41.29484 2.08318 24 ft 18 kts 154°
2026-05-07 17:09 41.29368 2.08390 23 ft 19 kts 155°
2026-05-07 17:10 41.29241 2.08464 23 ft 21 kts 174°
2026-05-07 17:10 41.29099 2.08407 23 ft 22 kts 202°
2026-05-07 17:10 41.28948 2.08334 23 ft 24 kts 198°
2026-05-07 17:10 41.28785 2.08261 23 ft 25 kts 198°
2026-05-07 17:11 41.28665 2.08152 23 ft 20 kts 254°
2026-05-07 17:11 41.28604 2.07977 24 ft 22 kts 241°
2026-05-07 17:11 41.28538 2.07788 23 ft 23 kts 245°
2026-05-07 17:11 41.28478 2.07612 25 ft 20 kts 245°
2026-05-07 17:12 41.28414 2.07471 23 ft 16 kts 199°
2026-05-07 17:12 41.28305 2.07420 24 ft 17 kts 199°
2026-05-07 17:12 41.28238 2.07472 21 ft 6 kts 60°
2026-05-07 17:12 41.28238 2.07473 21 ft 0 kts 60°
2026-05-07 17:16 41.28332 2.07728 21 ft 69 kts 68°
2026-05-07 17:16 41.28624 2.08586 23 ft 133 kts 65°
2026-05-07 17:16 41.29083 2.09879 169 ft 167 kts 65°
2026-05-07 17:17 41.29592 2.11314 766 ft 174 kts 72°
2026-05-07 17:17 41.29663 2.12895 1544 ft 172 kts 99°
2026-05-07 17:17 41.29311 2.14504 2016 ft 195 kts 118°
2026-05-07 17:17 41.28248 2.15746 2530 ft 220 kts 155°
2026-05-07 17:18 41.26633 2.16005 2954 ft 250 kts 183°
2026-05-07 17:18 41.24853 2.15933 3691 ft 260 kts 176°
2026-05-07 17:18 41.23026 2.16002 4605 ft 266 kts 178°
2026-05-07 17:18 41.21211 2.15446 5512 ft 274 kts 204°
2026-05-07 17:19 41.19719 2.13870 6415 ft 279 kts 231°
2026-05-07 17:19 41.18843 2.11564 7289 ft 282 kts 252°
2026-05-07 17:19 41.18308 2.09046 8217 ft 285 kts 255°
2026-05-07 17:19 41.17793 2.06530 9157 ft 287 kts 255°
2026-05-07 17:20 41.17249 2.03969 10075 ft 292 kts 254°
2026-05-07 17:20 41.16661 2.01286 10501 ft 313 kts 253°
2026-05-07 17:20 41.16019 1.98411 10859 ft 335 kts 253°
2026-05-07 17:20 41.15344 1.95416 11518 ft 343 kts 253°
2026-05-07 17:21 41.14655 1.92376 12336 ft 346 kts 253°
2026-05-07 17:21 41.13955 1.89307 13170 ft 349 kts 253°
2026-05-07 17:21 41.13247 1.86210 13969 ft 352 kts 253°
2026-05-07 17:21 41.12775 1.84151 14470 ft 353 kts 253°
2026-05-07 17:22 41.12140 1.81374 15144 ft 356 kts 253°
2026-05-07 17:22 41.11417 1.78225 15875 ft 358 kts 252°
2026-05-07 17:22 41.10687 1.75050 16593 ft 361 kts 252°
2026-05-07 17:23 41.09951 1.71858 17304 ft 364 kts 252°
2026-05-07 17:23 41.09206 1.68631 18002 ft 367 kts 252°
2026-05-07 17:23 41.08456 1.65382 18632 ft 370 kts 252°
2026-05-07 17:23 41.07700 1.62115 19231 ft 371 kts 252°
2026-05-07 17:24 41.06940 1.58835 19836 ft 373 kts 251°
2026-05-07 17:24 41.06177 1.55545 20439 ft 375 kts 251°
2026-05-07 17:24 41.05404 1.52225 21041 ft 378 kts 251°
2026-05-07 17:24 41.04627 1.48891 21610 ft 381 kts 251°
2026-05-07 17:25 41.03843 1.45524 22177 ft 383 kts 251°
2026-05-07 17:25 41.03052 1.42138 22714 ft 386 kts 250°
2026-05-07 17:25 41.02256 1.38731 23222 ft 388 kts 250°
2026-05-07 17:25 41.01455 1.35307 23676 ft 391 kts 250°
2026-05-07 17:26 41.00648 1.31862 24076 ft 392 kts 250°
2026-05-07 17:26 40.99839 1.28414 24461 ft 393 kts 249°
2026-05-07 17:26 40.99023 1.24947 24830 ft 395 kts 249°
2026-05-07 17:26 40.98206 1.21474 25208 ft 396 kts 249°
2026-05-07 17:27 40.97384 1.17992 25594 ft 398 kts 249°
2026-05-07 17:27 40.96554 1.14482 26068 ft 400 kts 248°
2026-05-07 17:27 40.95721 1.10964 26527 ft 402 kts 248°
2026-05-07 17:27 40.94883 1.07426 26978 ft 404 kts 248°
2026-05-07 17:28 40.94054 1.03924 27418 ft 405 kts 248°
2026-05-07 17:28 40.93207 1.00367 27850 ft 407 kts 248°
2026-05-07 17:28 40.92353 0.96785 28263 ft 409 kts 248°
2026-05-07 17:28 40.91496 0.93193 28681 ft 411 kts 247°
2026-05-07 17:29 40.90633 0.89589 29069 ft 412 kts 246°
2026-05-07 17:29 40.89490 0.86139 29366 ft 408 kts 234°
2026-05-07 17:29 40.87882 0.83073 29715 ft 406 kts 228°
2026-05-07 17:29 40.86157 0.80110 30138 ft 406 kts 227°
2026-05-07 17:30 40.84435 0.77165 30562 ft 405 kts 228°
2026-05-07 17:30 40.82723 0.74212 30911 ft 406 kts 230°
2026-05-07 17:30 40.81008 0.71221 31156 ft 410 kts 230°
2026-05-07 17:30 40.79288 0.68211 31536 ft 410 kts 230°
2026-05-07 17:31 40.77573 0.65209 31917 ft 410 kts 230°
2026-05-07 17:31 40.75857 0.62209 32298 ft 410 kts 230°
2026-05-07 17:31 40.74137 0.59211 32673 ft 409 kts 231°
2026-05-07 17:31 40.72422 0.56222 33039 ft 409 kts 231°
2026-05-07 17:32 40.70706 0.53238 33387 ft 408 kts 231°
2026-05-07 17:32 40.68992 0.50258 33735 ft 408 kts 231°
2026-05-07 17:32 40.67279 0.47280 34038 ft 407 kts 231°
2026-05-07 17:32 40.66146 0.45312 34213 ft 407 kts 231°
2026-05-07 17:33 40.63856 0.41339 34564 ft 407 kts 231°
2026-05-07 17:33 40.62145 0.38375 34815 ft 406 kts 231°
2026-05-07 17:33 40.60432 0.35411 34961 ft 409 kts 232°
2026-05-07 17:33 40.58701 0.32419 34976 ft 411 kts 232°
2026-05-07 17:34 40.55234 0.26432 34958 ft 411 kts 232°
2026-05-07 17:34 40.51765 0.20456 34954 ft 411 kts 232°
2026-05-07 17:35 40.48312 0.14517 34957 ft 411 kts 232°
2026-05-07 17:35 40.44835 0.08548 34955 ft 411 kts 233°
2026-05-07 17:36 40.41354 0.02586 34962 ft 412 kts 233°
2026-05-07 17:36 40.37866 -0.03384 34952 ft 413 kts 234°
2026-05-07 17:37 40.34367 -0.09367 34939 ft 414 kts 234°
2026-05-07 17:37 40.30861 -0.15347 34937 ft 414 kts 234°
2026-05-07 17:38 40.27348 -0.21319 34936 ft 413 kts 234°
2026-05-07 17:38 40.23838 -0.27273 34920 ft 413 kts 234°
2026-05-07 17:39 40.20332 -0.33210 34936 ft 412 kts 234°
2026-05-07 17:39 40.16828 -0.39135 34942 ft 412 kts 234°
2026-05-07 17:40 40.13321 -0.45052 34946 ft 412 kts 234°
2026-05-07 17:40 40.09812 -0.50960 34950 ft 412 kts 234°
2026-05-07 17:41 40.06315 -0.56840 34961 ft 413 kts 234°
2026-05-07 17:41 40.02774 -0.62782 34940 ft 412 kts 234°
2026-05-07 17:42 39.99283 -0.68625 34943 ft 410 kts 235°
2026-05-07 17:42 39.95770 -0.74497 34945 ft 410 kts 235°
2026-05-07 17:43 39.92258 -0.80358 34956 ft 410 kts 235°
2026-05-07 17:43 39.88743 -0.86210 34962 ft 410 kts 235°
2026-05-07 17:44 39.85226 -0.92059 34967 ft 410 kts 235°
2026-05-07 17:44 39.81706 -0.97901 34944 ft 410 kts 235°
2026-05-07 17:45 39.78188 -1.03726 34921 ft 408 kts 236°
2026-05-07 17:45 39.74679 -1.09526 34934 ft 408 kts 236°
2026-05-07 17:46 39.71165 -1.15325 34931 ft 409 kts 236°
2026-05-07 17:46 39.67641 -1.21128 34935 ft 409 kts 237°
2026-05-07 17:47 39.64710 -1.25949 34941 ft 409 kts 237°
2026-05-07 17:47 39.61178 -1.31747 34951 ft 410 kts 237°
2026-05-07 17:48 39.57645 -1.37535 34966 ft 410 kts 236°
2026-05-07 17:48 39.54119 -1.43299 34966 ft 406 kts 237°
2026-05-07 17:49 39.50608 -1.49031 34987 ft 406 kts 237°
2026-05-07 17:49 39.47097 -1.54752 34989 ft 404 kts 238°
2026-05-07 17:50 39.43613 -1.60418 34990 ft 402 kts 238°
2026-05-07 17:50 39.40134 -1.66069 34991 ft 402 kts 238°
2026-05-07 17:51 39.36678 -1.71669 35000 ft 401 kts 238°
2026-05-07 17:51 39.33194 -1.77303 34984 ft 400 kts 239°
2026-05-07 17:52 39.29743 -1.82876 34992 ft 396 kts 239°
2026-05-07 17:52 39.26297 -1.88437 34994 ft 397 kts 239°
2026-05-07 17:53 39.22854 -1.93975 34989 ft 393 kts 239°
2026-05-07 17:53 39.19433 -1.99472 34990 ft 393 kts 239°
2026-05-07 17:54 39.16009 -2.04963 34991 ft 393 kts 239°
2026-05-07 17:54 39.12583 -2.10448 34990 ft 393 kts 239°
2026-05-07 17:55 39.09156 -2.15926 34974 ft 392 kts 239°
2026-05-07 17:55 39.05746 -2.21365 34979 ft 390 kts 239°
2026-05-07 17:56 39.02339 -2.26792 34978 ft 389 kts 239°
2026-05-07 17:56 38.98958 -2.32170 34969 ft 389 kts 239°
2026-05-07 17:57 38.96111 -2.36689 34973 ft 388 kts 239°
2026-05-07 17:57 38.92162 -2.42952 34976 ft 388 kts 239°
2026-05-07 17:58 38.88760 -2.48334 34966 ft 388 kts 239°
2026-05-07 17:58 38.85958 -2.54089 34938 ft 376 kts 251°
2026-05-07 17:59 38.83834 -2.60197 34946 ft 375 kts 252°
2026-05-07 17:59 38.81693 -2.66276 34599 ft 372 kts 252°
2026-05-07 18:00 38.80615 -2.69317 33623 ft 378 kts 251°
2026-05-07 18:00 38.79521 -2.72390 32799 ft 379 kts 251°
2026-05-07 18:00 38.78430 -2.75445 32266 ft 375 kts 251°
2026-05-07 18:00 38.77348 -2.78466 31807 ft 371 kts 251°
2026-05-07 18:01 38.76275 -2.81465 31378 ft 370 kts 251°
2026-05-07 18:01 38.75202 -2.84467 30987 ft 370 kts 251°
2026-05-07 18:01 38.74135 -2.87443 30574 ft 365 kts 251°
2026-05-07 18:01 38.73079 -2.90381 30145 ft 361 kts 251°
2026-05-07 18:02 38.70996 -2.96178 29158 ft 355 kts 251°
2026-05-07 18:02 38.69967 -2.99037 28678 ft 352 kts 251°
2026-05-07 18:02 38.68946 -3.01870 28211 ft 349 kts 251°
2026-05-07 18:03 38.67935 -3.04673 27764 ft 345 kts 251°
2026-05-07 18:03 38.66935 -3.07443 27333 ft 341 kts 251°
2026-05-07 18:03 38.65944 -3.10187 26893 ft 338 kts 251°
2026-05-07 18:03 38.64960 -3.12913 26442 ft 336 kts 251°
2026-05-07 18:04 38.63995 -3.15581 26016 ft 334 kts 250°
2026-05-07 18:04 38.63022 -3.18267 25592 ft 332 kts 251°
2026-05-07 18:04 38.62057 -3.20930 25163 ft 329 kts 250°
2026-05-07 18:04 38.61096 -3.23577 24722 ft 328 kts 250°
2026-05-07 18:05 38.60138 -3.26219 24280 ft 327 kts 250°
2026-05-07 18:05 38.59181 -3.28850 23853 ft 326 kts 250°
2026-05-07 18:05 38.58226 -3.31476 23393 ft 325 kts 250°
2026-05-07 18:05 38.57273 -3.34094 22924 ft 324 kts 250°
2026-05-07 18:06 38.56324 -3.36696 22471 ft 322 kts 250°
2026-05-07 18:06 38.55381 -3.39282 22022 ft 320 kts 249°
2026-05-07 18:06 38.54442 -3.41859 21565 ft 319 kts 249°
2026-05-07 18:06 38.53504 -3.44424 21115 ft 318 kts 249°
2026-05-07 18:07 38.52569 -3.46982 20697 ft 317 kts 249°
2026-05-07 18:07 38.51636 -3.49532 20286 ft 317 kts 249°
2026-05-07 18:07 38.50703 -3.52079 19868 ft 317 kts 249°
2026-05-07 18:07 38.49771 -3.54623 19470 ft 316 kts 249°
2026-05-07 18:08 38.48838 -3.57165 19086 ft 316 kts 249°
2026-05-07 18:08 38.47905 -3.59705 18717 ft 316 kts 249°
2026-05-07 18:08 38.46972 -3.62243 18349 ft 316 kts 249°
2026-05-07 18:08 38.46040 -3.64777 17951 ft 315 kts 248°
2026-05-07 18:09 38.45111 -3.67301 17542 ft 314 kts 248°
2026-05-07 18:09 38.44184 -3.69818 17160 ft 314 kts 248°
2026-05-07 18:09 38.43253 -3.72341 16780 ft 315 kts 248°
2026-05-07 18:09 38.42322 -3.74865 16400 ft 315 kts 247°
2026-05-07 18:10 38.41387 -3.77395 16011 ft 315 kts 247°
2026-05-07 18:10 38.40452 -3.79925 15642 ft 315 kts 246°
2026-05-07 18:10 38.39517 -3.82450 15272 ft 315 kts 246°
2026-05-07 18:10 38.38582 -3.84974 14916 ft 315 kts 246°
2026-05-07 18:11 38.37647 -3.87498 14558 ft 315 kts 246°
2026-05-07 18:11 38.37026 -3.89173 14321 ft 316 kts 246°
2026-05-07 18:11 38.35778 -3.92536 13823 ft 317 kts 245°
2026-05-07 18:11 38.34835 -3.95075 13441 ft 318 kts 245°
2026-05-07 18:12 38.33887 -3.97620 13057 ft 317 kts 245°
2026-05-07 18:12 38.32944 -4.00154 12688 ft 317 kts 245°
2026-05-07 18:12 38.32000 -4.02685 12328 ft 316 kts 245°
2026-05-07 18:12 38.31058 -4.05215 11941 ft 316 kts 245°
2026-05-07 18:13 38.30113 -4.07748 11567 ft 316 kts 245°
2026-05-07 18:13 38.29169 -4.10275 11215 ft 315 kts 245°
2026-05-07 18:13 38.28228 -4.12791 10858 ft 314 kts 245°
2026-05-07 18:13 38.27293 -4.15292 10558 ft 309 kts 245°
2026-05-07 18:14 38.26384 -4.17717 10362 ft 299 kts 245°
2026-05-07 18:14 38.25507 -4.20057 10208 ft 288 kts 245°
2026-05-07 18:14 38.24658 -4.22320 10012 ft 280 kts 245°
2026-05-07 18:14 38.23827 -4.24532 9692 ft 275 kts 245°
2026-05-07 18:15 38.23004 -4.26726 9335 ft 275 kts 245°
2026-05-07 18:15 38.22183 -4.28911 8980 ft 276 kts 245°
2026-05-07 18:15 38.21352 -4.31124 8658 ft 276 kts 245°
2026-05-07 18:15 38.20522 -4.33329 8322 ft 276 kts 245°
2026-05-07 18:16 38.19698 -4.35518 8000 ft 274 kts 245°
2026-05-07 18:16 38.18875 -4.37701 7710 ft 273 kts 245°
2026-05-07 18:16 38.18060 -4.39862 7414 ft 269 kts 245°
2026-05-07 18:16 38.17262 -4.41978 7093 ft 269 kts 245°
2026-05-07 18:17 38.16440 -4.44154 6783 ft 270 kts 244°
2026-05-07 18:17 38.15638 -4.46277 6478 ft 270 kts 244°
2026-05-07 18:17 38.14834 -4.48402 6256 ft 263 kts 244°
2026-05-07 18:17 38.14058 -4.50455 6105 ft 253 kts 244°
2026-05-07 18:18 38.13314 -4.52420 5984 ft 241 kts 244°
2026-05-07 18:18 38.12603 -4.54296 5868 ft 230 kts 244°
2026-05-07 18:18 38.11926 -4.56084 5706 ft 221 kts 244°
2026-05-07 18:18 38.11261 -4.57838 5477 ft 220 kts 243°
2026-05-07 18:19 38.10599 -4.59580 5312 ft 218 kts 242°
2026-05-07 18:19 38.09940 -4.61314 5223 ft 218 kts 243°
2026-05-07 18:19 38.09222 -4.62992 5273 ft 215 kts 231°
2026-05-07 18:19 38.08130 -4.64280 5226 ft 216 kts 217°
2026-05-07 18:20 38.06928 -4.65396 5019 ft 215 kts 216°
2026-05-07 18:20 38.05729 -4.66515 4688 ft 212 kts 217°
2026-05-07 18:20 38.04573 -4.67611 4331 ft 201 kts 218°
2026-05-07 18:20 38.03508 -4.68631 4085 ft 185 kts 217°
2026-05-07 18:21 38.02509 -4.69591 3817 ft 176 kts 218°
2026-05-07 18:21 38.01546 -4.70523 3590 ft 171 kts 217°
2026-05-07 18:21 38.00602 -4.71378 3357 ft 163 kts 213°
2026-05-07 18:21 37.99714 -4.72110 3080 ft 140 kts 214°
2026-05-07 18:22 37.98923 -4.72768 3018 ft 135 kts 213°
2026-05-07 18:22 37.98397 -4.73220 3030 ft 135 kts 213°
2026-05-07 18:22 37.97362 -4.74092 3043 ft 136 kts 213°
2026-05-07 18:22 37.96577 -4.74758 3040 ft 136 kts 213°
2026-05-07 18:23 37.95785 -4.75424 2989 ft 136 kts 214°
2026-05-07 18:23 37.95005 -4.76085 2785 ft 134 kts 214°
2026-05-07 18:23 37.94227 -4.76737 2604 ft 135 kts 212°
2026-05-07 18:23 37.93450 -4.77395 2416 ft 133 kts 212°
2026-05-07 18:24 37.92702 -4.78090 2206 ft 135 kts 218°
2026-05-07 18:24 37.91989 -4.78861 1995 ft 136 kts 222°
2026-05-07 18:24 37.91271 -4.79659 1786 ft 138 kts 221°
2026-05-07 18:24 37.90524 -4.80417 1602 ft 138 kts 217°
2026-05-07 18:25 37.89688 -4.81025 1403 ft 139 kts 212°
2026-05-07 18:25 37.88850 -4.81611 1207 ft 137 kts 214°
2026-05-07 18:25 37.88035 -4.82193 997 ft 132 kts 213°
2026-05-07 18:25 37.87228 -4.82766 877 ft 135 kts 212°
2026-05-07 18:26 37.86413 -4.83342 694 ft 135 kts 211°
2026-05-07 18:26 37.85610 -4.83886 527 ft 129 kts 213°
2026-05-07 18:26 37.84826 -4.84439 335 ft 130 kts 213°
2026-05-07 18:26 37.84122 -4.84950 307 ft 92 kts 200°
2026-05-07 18:27 37.83747 -4.85201 308 ft 31 kts 201°
2026-05-07 18:27 37.83597 -4.85305 308 ft 20 kts 215°
2026-05-07 18:27 37.83509 -4.85342 306 ft 12 kts 172°
2026-05-07 18:27 37.83475 -4.85377 306 ft 14 kts 291°
2026-05-07 18:28 37.83526 -4.85352 306 ft 15 kts 34°
2026-05-07 18:28 37.83625 -4.85286 306 ft 17 kts 27°
2026-05-07 18:28 37.83749 -4.85208 310 ft 23 kts 29°
2026-05-07 18:28 37.83894 -4.85105 309 ft 25 kts 32°
2026-05-07 18:29 37.84059 -4.84990 309 ft 27 kts 31°
2026-05-07 18:29 37.84231 -4.84869 310 ft 29 kts 28°
2026-05-07 18:29 37.84349 -4.84777 311 ft 5 kts 63°
2026-05-07 18:29 37.84355 -4.84733 312 ft 10 kts 97°
2026-05-07 18:30 37.84319 -4.84643 314 ft 13 kts 119°
2026-05-07 18:30 37.84346 -4.84561 315 ft 0 kts 31°
2026-05-07 18:31 37.84356 -4.84552 315 ft 3 kts 47°
2026-05-07 18:31 37.84341 -4.84519 315 ft 5 kts 128°
2026-05-07 18:32 37.84336 -4.84509 315 ft 1 kts 126°
2026-05-07 18:32 37.84333 -4.84505 315 ft 0 kts 127°